Retour au catalogue

DELTA 1 DEB

YO

ActifVLEO
NORAD 228·DEBRIS·🇺🇸 United States

Lancé Feb 8, 1962 depuis Cape Canaveral Space Force Station

Loading…

Prochains Passages (prochaines 24 heures)

TLE

FraisSource: Space-Track

Époque: Sep 14, 2026, 05:53 UTC

1 00228U 62002C   26257.24563762  .00039973  00000-0  50395-3 0  9995
2 00228  48.4283 201.4941 0002507 186.6719 173.4196 15.59100914456973

Suivez DELTA 1 DEB en temps réel avec AllMySat

Download on the App Store